CW1988 Weather Reports


Display with metric or nautical units.
time (UTC)temp
F
wind
direction
speed
MPH
gust
MPH
rain 1hr
in
rain 24hr
in
rain mn
in
humidity
%
barometer
mb
20260902222838 86 152 0.0 0.0 0.00 0.00 0.00 71 1013.8
20260902222336 86 152 0.0 0.0 0.00 0.00 0.00 70 1013.7
20260902221831 86 152 0.0 0.0 0.00 0.00 0.00 70 1013.9
20260902221330 86 152 0.0 0.0 0.00 0.00 0.00 69 1013.8
20260902220826 86 152 0.0 0.0 0.00 0.00 0.00 70 1013.6
20260902220325 86 152 0.0 0.0 0.00 0.00 0.00 69 1014.0
20260902215820 87 152 0.0 0.0 0.00 0.00 0.00 70 1013.7
20260902215314 87 152 0.0 0.0 0.00 0.00 0.00 69 1014.1
20260902214811 87 152 0.0 0.0 0.00 0.00 0.00 68 1013.9
20260902214309 87 152 0.0 0.0 0.00 0.00 0.00 69 1014.0
20260902213805 87 152 0.0 0.0 0.00 0.00 0.00 70 1013.7
20260902213300 87 152 0.0 0.0 0.00 0.00 0.00 69 1013.9
20260902212759 87 152 0.0 0.0 0.00 0.00 0.00 70 1014.1
20260902212256 87 152 0.0 0.0 0.00 0.00 0.00 70 1014.0
20260902211751 87 152 0.0 0.0 0.00 0.00 0.00 70 1013.8
20260902211247 87 152 0.0 0.0 0.00 0.00 0.00 69 1013.8
20260902210741 87 152 0.0 0.0 0.00 0.00 0.00 69 1013.7
20260902210237 87 152 0.0 0.0 0.00 0.00 0.00 67 1013.8
20260902205734 87 152 0.0 0.0 0.00 0.00 0.00 67 1013.8
20260902205230 87 152 0.0 0.0 0.00 0.00 0.00 68 1014.0
20260902204726 87 152 0.0 0.0 0.00 0.00 0.00 67 1014.0
20260902204221 87 152 0.0 0.0 0.00 0.00 0.00 66 1014.0
20260902203715 88 151 0.0 0.0 0.00 0.00 0.00 66 1013.9
20260902203210 89 151 0.0 0.0 0.00 0.00 0.00 64 1013.9
20260902202705 89 138 0.0 0.0 0.00 0.00 0.00 64 1013.9
20260902202202 89 138 0.0 0.0 0.00 0.00 0.00 66 1013.7
20260902201657 88 138 0.0 0.0 0.00 0.00 0.00 68 1013.6
20260902201156 88 136 0.0 0.0 0.00 0.00 0.00 68 1013.9
20260902200651 88 151 0.0 0.0 0.00 0.00 0.00 67 1013.8
20260902200147 88 151 0.0 0.0 0.00 0.00 0.00 66 1014.0
20260902195642 89 151 0.0 0.0 0.00 0.00 0.00 65 1014.0
20260902195137 89 151 0.0 0.0 0.00 0.00 0.00 67 1014.0
20260902194635 89 149 0.0 0.0 0.00 0.00 0.00 67 1013.8
20260902194131 89 149 0.0 0.0 0.00 0.00 0.00 67 1014.0
20260902193626 89 150 0.0 0.0 0.00 0.00 0.00 68 1014.2
20260902193121 89 150 0.0 0.0 0.00 0.00 0.00 66 1014.1
20260902192620 89 143 0.0 1.0 0.00 0.00 0.00 66 1014.0
20260902192118 89 139 0.0 0.0 0.00 0.00 0.00 68 1014.1
20260902191613 90 137 0.0 0.0 0.00 0.00 0.00 68 1014.0
20260902191108 90 137 0.0 2.0 0.00 0.00 0.00 65 1014.2
20260902190604 91 137 1.0 1.0 0.00 0.00 0.00 64 1014.1
20260902190059 91 129 0.0 0.0 0.00 0.00 0.00 65 1014.4
20260902185554 90 127 0.0 1.0 0.00 0.00 0.00 65 1014.3
20260902185050 89 150 0.0 0.0 0.00 0.00 0.00 67 1014.3
20260902184545 89 141 0.0 0.0 0.00 0.00 0.00 69 1014.5
20260902184040 89 140 0.0 0.0 0.00 0.00 0.00 67 1014.6
20260902183537 90 140 0.0 1.0 0.00 0.00 0.00 66 1014.4
20260902183033 89 132 0.0 0.0 0.00 0.00 0.00 67 1014.4
20260902182529 89 124 0.0 0.0 0.00 0.00 0.00 67 1014.3
20260902182025 88 137 0.0 0.0 0.00 0.00 0.00 70 1014.4
20260902181520 88 137 0.0 0.0 0.00 0.00 0.00 66 1014.5
20260902181014 87 137 0.0 0.0 0.00 0.00 0.00 68 1014.8
20260902180509 87 137 0.0 0.0 0.00 0.00 0.00 66 1014.7
20260902180007 87 137 0.0 1.0 0.00 0.00 0.00 66 1014.7
20260902175504 88 138 0.0 0.0 0.00 0.00 0.00 65 1014.7
20260902175000 87 138 0.0 0.0 0.00 0.00 0.00 67 1014.8
20260902174457 87 137 0.0 0.0 0.00 0.00 0.00 68 1014.8
20260902173952 87 137 0.0 0.0 0.00 0.00 0.00 67 1014.9
20260902173451 87 137 0.0 0.0 0.00 0.00 0.00 66 1015.0
20260902172947 87 137 0.0 0.0 0.00 0.00 0.00 65 1015.2
20260902172446 87 137 0.0 0.0 0.00 0.00 0.00 65 1015.0
20260902171941 87 137 1.0 1.0 0.00 0.00 0.00 62 1015.1
20260902171437 88 138 1.0 1.0 0.00 0.00 0.00 61 1015.0
20260902170933 88 138 0.0 0.0 0.00 0.00 0.00 65 1015.1
20260902170427 87 138 0.0 0.0 0.00 0.00 0.00 63 1015.2
20260902165923 87 138 0.0 0.0 0.00 0.00 0.00 63 1015.2
20260902165422 88 137 0.0 0.0 0.00 0.00 0.00 61 1015.2
20260902164917 88 138 0.0 0.0 0.00 0.00 0.00 60 1015.2
20260902164417 88 137 0.0 0.0 0.00 0.00 0.00 65 1015.2
20260902163917 87 138 0.0 0.0 0.00 0.00 0.00 60 1015.4
20260902163412 86 138 0.0 0.0 0.00 0.00 0.00 64 1015.5
20260902162910 86 137 0.0 0.0 0.00 0.00 0.00 61 1015.4
20260902162405 87 138 0.0 0.0 0.00 0.00 0.00 61 1015.5
20260902161900 86 138 0.0 0.0 0.00 0.00 0.00 65 1015.3
20260902161355 86 138 0.0 0.0 0.00 0.00 0.00 64 1015.5
20260902160852 87 137 0.0 0.0 0.00 0.00 0.00 60 1015.6
20260902160347 86 138 0.0 0.0 0.00 0.00 0.00 65 1015.3
20260902155845 85 138 0.0 0.0 0.00 0.00 0.00 65 1015.0
20260902155344 85 119 0.0 0.0 0.00 0.00 0.00 66 1014.7
20260902154839 84 118 0.0 0.0 0.00 0.00 0.00 66 1014.9
20260902154335 83 117 0.0 0.0 0.00 0.00 0.00 67 1014.8
20260902153833 82 133 0.0 0.0 0.00 0.00 0.00 68 1014.7
20260902153333 83 134 2.0 2.0 0.00 0.00 0.00 66 1014.9
20260902152829 83 124 0.0 1.0 0.00 0.00 0.00 65 1015.3
20260902152324 82 125 0.0 1.0 0.00 0.00 0.00 68 1015.0
20260902151820 82 125 0.0 0.0 0.00 0.00 0.00 70 1015.2
20260902151315 80 125 0.0 0.0 0.00 0.00 0.00 72 1015.3
20260902150810 79 126 0.0 0.0 0.00 0.00 0.00 72 1015.3
20260902150306 79 125 0.0 0.0 0.00 0.00 0.00 73 1015.5
20260902145805 78 126 0.0 0.0 0.00 0.00 0.00 74 1015.5
20260902145301 78 127 0.0 0.0 0.00 0.00 0.00 75 1015.5
20260902144756 78 127 0.0 0.0 0.00 0.00 0.00 75 1015.5
20260902144252 78 126 0.0 0.0 0.00 0.00 0.00 73 1015.5
20260902143747 78 128 0.0 2.0 0.00 0.00 0.00 75 1015.5
20260902143241 77 130 0.0 1.0 0.00 0.00 0.00 74 1015.6
20260902142737 77 129 0.0 0.0 0.00 0.00 0.00 77 1015.7
20260902142233 77 128 0.0 0.0 0.00 0.00 0.00 78 1015.5
20260902141733 77 130 0.0 0.0 0.00 0.00 0.00 76 1015.6
20260902141229 77 128 0.0 0.0 0.00 0.00 0.00 77 1015.6
20260902140723 76 129 0.0 0.0 0.00 0.00 0.00 78 1015.7
20260902140218 76 129 0.0 0.0 0.00 0.00 0.00 78 1015.6
20260902135718 76 131 0.0 0.0 0.00 0.00 0.00 79 1015.8
20260902135214 75 128 0.0 0.0 0.00 0.00 0.00 80 1015.6
20260902134713 75 128 0.0 0.0 0.00 0.00 0.00 80 1015.8
20260902134208 75 129 0.0 0.0 0.00 0.00 0.00 80 1016.0
20260902133703 75 120 0.0 1.0 0.00 0.00 0.00 80 1015.6
20260902133202 75 123 0.0 1.0 0.00 0.00 0.00 81 1015.7
20260902132658 75 122 0.0 0.0 0.00 0.00 0.00 80 1015.8
20260902132153 75 126 0.0 0.0 0.00 0.00 0.00 81 1016.0
20260902131649 74 126 0.0 0.0 0.00 0.00 0.00 82 1016.1
20260902131145 74 126 0.0 0.0 0.00 0.00 0.00 82 1016.0
20260902130640 74 126 0.0 0.0 0.00 0.00 0.00 82 1016.2
20260902130136 74 125 0.0 0.0 0.00 0.00 0.00 82 1016.2
20260902125631 74 125 0.0 0.0 0.00 0.00 0.00 82 1016.3
20260902125126 74 127 0.0 0.0 0.00 0.00 0.00 83 1016.3
20260902124623 73 127 0.0 0.0 0.00 0.00 0.00 83 1016.2
20260902124123 73 127 0.0 0.0 0.00 0.00 0.00 82 1016.3
20260902123619 73 127 0.0 0.0 0.00 0.00 0.00 83 1016.3
20260902123114 73 127 0.0 0.0 0.00 0.00 0.00 83 1016.3
20260902122613 73 126 0.0 0.0 0.00 0.00 0.00 83 1016.3
20260902122108 73 131 0.0 0.0 0.00 0.00 0.00 84 1016.4
20260902121603 73 131 0.0 0.0 0.00 0.00 0.00 84 1016.3
20260902121058 74 131 0.0 0.0 0.00 0.00 0.00 83 1016.6
20260902120554 73 145 0.0 0.0 0.00 0.00 0.00 83 1016.0
20260902120050 73 140 0.0 0.0 0.00 0.00 0.00 85 1016.4
20260902115545 73 142 0.0 0.0 0.00 0.00 0.00 88 1016.4
20260902115041 73 131 0.0 0.0 0.00 0.00 0.00 92 1016.0
20260902114537 72 131 0.0 0.0 0.00 0.00 0.00 93 1016.4
20260902114037 72 131 0.0 0.0 0.00 0.00 0.00 95 1016.4
20260902113532 72 131 0.0 0.0 0.00 0.00 0.00 97 1016.1
20260902113027 72 131 0.0 0.0 0.00 0.00 0.00 97 1016.3
20260902112523 72 131 0.0 0.0 0.00 0.00 0.00 97 1016.0
20260902112020 71 127 0.0 0.0 0.00 0.00 0.00 97 1015.8
20260902111516 71 124 1.0 1.0 0.00 0.00 0.00 97 1016.3
20260902111011 71 132 0.0 0.0 0.00 0.00 0.00 97 1015.2
20260902110507 71 132 0.0 0.0 0.00 0.00 0.00 97 1014.8
20260902110002 71 132 0.0 0.0 0.00 0.00 0.00 97 1014.8
20260902105457 72 132 0.0 0.0 0.00 0.00 0.00 97 1014.7
20260902104951 72 132 0.0 0.0 0.00 0.00 0.00 97 1014.8
20260902104447 71 132 0.0 0.0 0.00 0.00 0.00 97 1014.8
20260902103946 71 132 0.0 0.0 0.00 0.00 0.00 97 1015.1
20260902103442 71 132 0.0 0.0 0.00 0.00 0.00 97 1015.1
20260902102937 72 132 0.0 0.0 0.00 0.00 0.00 97 1015.1
20260902102428 72 132 0.0 0.0 0.00 0.00 0.00 97 1014.9
20260902101924 72 132 0.0 0.0 0.00 0.00 0.00 97 1014.8
20260902101424 72 132 0.0 0.0 0.00 0.00 0.00 97 1015.1
20260902100923 72 132 0.0 0.0 0.00 0.00 0.00 97 1014.9
20260902100418 72 132 0.0 0.0 0.00 0.00 0.00 97 1015.0
20260902095912 72 132 0.0 0.0 0.00 0.00 0.00 97 1015.1
20260902095407 72 132 0.0 0.0 0.00 0.00 0.00 97 1015.0
20260902094901 72 132 0.0 0.0 0.00 0.00 0.00 97 1015.2
20260902094357 72 132 0.0 0.0 0.00 0.00 0.00 97 1015.4
20260902093856 72 133 0.0 0.0 0.00 0.00 0.00 97 1015.4
20260902093352 72 148 0.0 0.0 0.00 0.00 0.00 97 1015.3
20260902092851 72 148 0.0 0.0 0.00 0.00 0.00 97 1015.6
20260902092347 72 148 0.0 0.0 0.00 0.00 0.00 97 1015.6
20260902091846 72 148 0.0 0.0 0.00 0.00 0.00 97 1015.5
20260902091341 72 148 0.0 0.0 0.00 0.00 0.00 96 1015.8
20260902090839 72 147 0.0 0.0 0.00 0.00 0.00 96 1015.5
20260902090337 72 147 0.0 0.0 0.00 0.00 0.00 96 1015.3
20260902085837 72 148 0.0 0.0 0.00 0.00 0.00 96 1015.2
20260902085332 72 148 0.0 0.0 0.00 0.00 0.00 96 1015.0
20260902084828 72 147 0.0 0.0 0.00 0.00 0.00 96 1015.1
20260902084325 72 148 0.0 0.0 0.00 0.00 0.00 96 1015.1
20260902083819 72 147 0.0 0.0 0.00 0.00 0.00 96 1015.1
20260902083314 73 147 0.0 0.0 0.00 0.00 0.00 96 1015.1
20260902082809 73 148 0.0 0.0 0.00 0.00 0.00 96 1015.2
20260902082309 73 148 0.0 0.0 0.00 0.00 0.00 96 1015.1
20260902081801 73 148 0.0 0.0 0.00 0.00 0.00 96 1015.0
20260902081256 73 148 0.0 0.0 0.00 0.00 0.00 96 1014.8
20260902080751 73 148 0.0 0.0 0.00 0.00 0.00 96 1014.7
20260902080249 73 148 0.0 0.0 0.00 0.00 0.00 95 1014.9
20260902075748 73 148 0.0 0.0 0.00 0.00 0.00 95 1014.7
20260902075244 73 148 0.0 0.0 0.00 0.00 0.00 94 1015.0
20260902074743 73 148 0.0 0.0 0.00 0.00 0.00 94 1015.1
20260902074239 74 148 0.0 0.0 0.00 0.00 0.00 94 1015.0
20260902073734 74 148 0.0 0.0 0.00 0.00 0.00 94 1014.9
20260902073230 74 148 0.0 0.0 0.00 0.00 0.00 94 1014.9
20260902072726 74 148 0.0 0.0 0.00 0.00 0.00 94 1014.9
20260902072222 74 148 0.0 0.0 0.00 0.00 0.00 94 1015.0
20260902071718 74 148 0.0 0.0 0.00 0.00 0.00 93 1014.8
20260902071213 75 148 0.0 0.0 0.00 0.00 0.00 93 1014.9
20260902070709 75 148 0.0 0.0 0.00 0.00 0.00 93 1015.1
20260902070208 75 148 0.0 0.0 0.00 0.00 0.00 93 1015.2
20260902065707 75 148 0.0 0.0 0.00 0.00 0.00 93 1015.2
20260902065203 75 148 0.0 0.0 0.00 0.00 0.00 93 1015.2
20260902064658 75 148 0.0 0.0 0.00 0.00 0.00 94 1015.0
20260902064154 74 148 0.0 0.0 0.00 0.00 0.00 94 1015.3
20260902063649 74 145 0.0 0.0 0.00 0.00 0.00 94 1015.2
20260902063144 75 144 0.0 0.0 0.00 0.00 0.00 95 1015.0
20260902062643 75 144 0.0 0.0 0.00 0.00 0.00 94 1014.9
20260902062139 75 144 0.0 0.0 0.00 0.00 0.00 94 1014.9
20260902061638 75 144 0.0 1.0 0.00 0.00 0.00 94 1015.0
20260902061134 75 144 0.0 0.0 0.00 0.00 0.00 94 1015.0
20260902060630 75 144 0.0 0.0 0.00 0.00 0.00 94 1015.0
20260902060126 75 144 0.0 0.0 0.00 0.00 0.00 94 1015.1
20260902055622 75 144 0.0 0.0 0.00 0.00 0.00 93 1015.3
20260902055117 75 144 0.0 0.0 0.00 0.00 0.00 93 1015.3
20260902054612 75 144 0.0 0.0 0.00 0.00 0.00 93 1015.2
20260902054108 75 144 0.0 0.0 0.00 0.00 0.00 93 1015.3
20260902053602 75 144 0.0 0.0 0.00 0.00 0.00 93 1015.3
20260902053057 75 144 0.0 0.0 0.00 0.00 0.00 93 1015.3
20260902052551 75 144 0.0 0.0 0.00 0.00 0.00 93 1015.3
20260902052047 75 144 0.0 0.0 0.00 0.00 0.00 92 1015.2
20260902051547 75 144 0.0 0.0 0.00 0.00 0.00 92 1015.3
20260902051046 75 144 0.0 0.0 0.00 0.00 0.00 92 1015.2
20260902050540 76 144 0.0 0.0 0.00 0.00 0.00 92 1015.0
20260902050036 76 144 0.0 0.0 0.00 0.00 0.00 91 1014.8
20260902045531 76 144 0.0 0.0 0.00 0.00 0.00 91 1014.5
20260902045027 76 144 0.0 0.0 0.00 0.00 0.00 91 1014.6
20260902044522 76 144 0.0 0.0 0.00 0.00 0.00 90 1014.8
20260902044018 76 144 0.0 0.0 0.00 0.00 0.00 90 1014.8
20260902043513 77 144 0.0 0.0 0.00 0.00 0.00 90 1014.9
20260902043012 77 144 0.0 0.0 0.00 0.00 0.00 90 1015.1
20260902042507 77 144 0.0 0.0 0.00 0.00 0.00 91 1015.2
20260902042002 77 144 0.0 0.0 0.00 0.00 0.00 91 1015.1
20260902041501 77 144 0.0 0.0 0.00 0.00 0.00 90 1015.2
20260902040956 77 144 0.0 0.0 0.00 0.00 0.00 90 1015.1
20260902040456 77 144 0.0 0.0 0.00 0.00 0.00 90 1015.1
20260902035955 77 144 0.0 0.0 0.00 0.00 0.00 90 1015.1
20260902035450 77 144 0.0 0.0 0.00 0.00 0.00 90 1014.7
20260902034944 78 144 0.0 0.0 0.00 0.00 0.00 89 1014.7
20260902034439 78 144 0.0 0.0 0.00 0.00 0.00 89 1014.8
20260902033938 77 144 0.0 0.0 0.00 0.00 0.00 89 1014.7
20260902033432 77 144 0.0 0.0 0.00 0.00 0.00 88 1014.6
20260902032932 77 144 0.0 0.0 0.00 0.00 0.00 88 1014.5
20260902032432 77 145 0.0 0.0 0.00 0.00 0.00 88 1014.6
20260902031926 77 145 0.0 0.0 0.00 0.00 0.00 89 1014.8
20260902031422 77 145 0.0 0.0 0.00 0.00 0.00 89 1014.7
20260902030918 77 145 0.0 0.0 0.00 0.00 0.00 90 1014.7
20260902030412 77 145 0.0 0.0 0.00 0.00 0.00 90 1014.9
20260902025911 77 145 0.0 0.0 0.00 0.00 0.00 90 1014.9
20260902025408 77 145 0.0 0.0 0.00 0.00 0.00 90 1014.7
20260902024908 77 145 0.0 0.0 0.00 0.00 0.00 90 1014.9
20260902024358 77 145 0.0 0.0 0.00 0.00 0.00 90 1014.9
20260902023853 77 145 0.0 0.0 0.00 0.00 0.00 90 1015.0
20260902023348 77 145 0.0 0.0 0.00 0.00 0.00 90 1015.0
20260902022847 77 145 0.0 0.0 0.00 0.00 0.00 90 1014.9
20260902022342 77 145 0.0 0.0 0.00 0.00 0.00 90 1015.0
20260902021838 77 145 0.0 0.0 0.00 0.00 0.00 90 1015.0
20260902021332 77 145 0.0 0.0 0.00 0.00 0.00 90 1015.1
20260902020828 77 145 0.0 0.0 0.00 0.00 0.00 90 1015.1
20260902020325 77 145 0.0 0.0 0.00 0.00 0.00 90 1015.4
20260902015819 77 145 0.0 0.0 0.00 0.00 0.00 89 1015.5
20260902015315 77 145 0.0 0.0 0.00 0.00 0.00 90 1015.2
20260902014811 77 145 0.0 0.0 0.00 0.00 0.00 90 1015.2
20260902014308 77 145 0.0 0.0 0.00 0.00 0.00 90 1015.1
20260902013806 77 145 0.0 0.0 0.00 0.00 0.00 90 1015.1
20260902013302 77 145 0.0 0.0 0.00 0.00 0.00 90 1015.1
20260902012757 77 145 0.0 0.0 0.00 0.00 0.00 90 1015.1
20260902012253 77 145 0.0 0.0 0.00 0.00 0.00 89 1014.8
20260902011748 77 145 0.0 0.0 0.00 0.00 0.00 89 1014.8
20260902011248 77 145 0.0 0.0 0.00 0.00 0.00 89 1014.7
20260902010741 77 145 0.0 0.0 0.00 0.00 0.00 89 1014.8
20260902010237 77 145 0.0 0.0 0.00 0.00 0.00 89 1014.6
20260902005735 77 145 0.0 0.0 0.00 0.00 0.00 89 1014.7
20260902005231 77 145 0.0 0.0 0.00 0.00 0.00 88 1014.8
20260902004731 77 145 0.0 0.0 0.00 0.00 0.00 88 1014.6
20260902004226 78 145 0.0 0.0 0.00 0.00 0.00 88 1014.6
20260902003716 78 145 0.0 0.0 0.00 0.00 0.00 87 1014.7
20260902003211 78 145 0.0 0.0 0.00 0.00 0.00 87 1014.6
20260902002706 78 145 0.0 0.0 0.00 0.00 0.00 87 1014.6
20260902002206 78 145 0.0 0.0 0.00 0.00 0.00 87 1014.5
20260902001702 78 145 0.0 0.0 0.00 0.00 0.00 87 1014.8
20260902001201 78 145 0.0 0.0 0.00 0.00 0.00 86 1014.7
20260902000657 79 145 0.0 0.0 0.00 0.00 0.00 86 1014.6
20260902000152 79 145 0.0 0.0 0.00 0.00 0.00 86 1014.7
20260901235651 79 145 0.0 0.0 0.00 0.00 0.00 86 1014.6
20260901235147 79 145 0.0 0.0 0.00 0.00 0.00 86 1014.8
20260901234646 79 145 0.0 0.0 0.00 0.00 0.00 85 1014.5
20260901234141 79 145 0.0 0.0 0.00 0.00 0.00 84 1014.6
20260901233636 79 145 0.0 0.0 0.00 0.00 0.00 84 1014.6
20260901233132 79 145 0.0 0.0 0.00 0.00 0.00 85 1014.6
20260901232626 79 145 0.0 0.0 0.00 0.00 0.00 85 1014.8
20260901232121 79 145 0.0 0.0 0.00 0.00 0.00 85 1014.8
20260901231618 79 145 0.0 0.0 0.00 0.00 0.00 84 1014.7
20260901231114 79 145 0.0 0.0 0.00 0.00 0.00 84 1014.4
20260901230609 79 145 0.0 0.0 0.00 0.00 0.00 85 1014.0
20260901230109 80 145 0.0 0.0 0.00 0.00 0.00 85 1013.6
20260901225604 80 145 0.0 0.0 0.00 0.00 0.00 86 1014.0
20260901225104 80 145 0.0 0.0 0.00 0.00 0.00 84 1014.3
20260901224600 80 145 0.0 0.0 0.00 0.00 0.00 83 1014.5
20260901224056 80 145 0.0 0.0 0.00 0.00 0.00 84 1014.3
20260901223551 80 145 0.0 0.0 0.00 0.00 0.00 84 1014.7